Location: Betpouey
(42.8833°N, 0.0333°E)
Time: 21:18:12
(UTC+00:00)

Cosmos 1939 Rocket - Pass Details

Date: 01 December 2020
Orbit: 532 x 584 km, 97.4° (Epoch: 19 January)

Event Time Altitude Azimuth Distance (km) Brightness Sun altitude
Rises 17:30:47 0° 146° (SSE) 2,673 6.2 -11.5°
Reaches altitude 10° 17:32:59 10° 138° (SE) 1,791 5.2 -11.9°
Maximum altitude 17:36:32 36° 71° (ENE) 877 3.3 -12.5°
Drops below altitude 10° 17:40:09 10° 5° (N) 1,827 5.2 -13.2°
Sets 17:42:24 0° 357° (N) 2,734 6.2 -13.6°
